Wetterdaten: Mrz 2010
Datum Temp Feuchte Luftdruck Regen Wind Richtung Sonnenschein UV Solar Windben
01.03.2010 2,4 C 86 % 1008,9 hPa 5,0 l/m 12,5 km/h W-SW 1,25 h 0,8 UV-I 117 W/m 31,0 km/h
02.03.2010 1,0 C 87 % 1021,0 hPa 0,0 l/m 5,6 km/h W 1,75 h 0,9 UV-I 164 W/m 17,3 km/h
03.03.2010 0,0 C 87 % 1021,5 hPa 0,0 l/m 1,3 km/h NW 2,50 h 1,0 UV-I 189 W/m 3,6 km/h
04.03.2010 -1,5 C 79 % 1020,5 hPa 0,0 l/m 4,4 km/h N 2,83 h 0,9 UV-I 184 W/m 10,5 km/h
05.03.2010 -1,8 C 86 % 1019,2 hPa 0,0 l/m 11,1 km/h NW 5,42 h 1,2 UV-I 249 W/m 21,7 km/h
06.03.2010 -3,8 C 85 % 1024,9 hPa 4,8 l/m 7,0 km/h N-NO 3,00 h 0,8 UV-I 156 W/m 17,7 km/h
07.03.2010 -7,5 C 79 % 1033,2 hPa 2,8 l/m 1,1 km/h N-NO 8,17 h 1,4 UV-I 316 W/m 4,8 km/h
08.03.2010 -3,1 C 80 % 1027,3 hPa 1,0 l/m 1,9 km/h NO 3,58 h 1,2 UV-I 198 W/m 8,0 km/h
09.03.2010 -4,0 C 64 % 1029,1 hPa 0,4 l/m 2,6 km/h N-NO 8,50 h 1,5 UV-I 313 W/m 7,6 km/h
10.03.2010 -1,7 C 77 % 1025,0 hPa 0,2 l/m 7,6 km/h N-NO 8,75 h 1,5 UV-I 317 W/m 17,7 km/h
11.03.2010 -2,4 C 89 % 1019,2 hPa 0,0 l/m 2,8 km/h N-NO 4,33 h 1,6 UV-I 244 W/m 8,0 km/h
12.03.2010 1,3 C 89 % 1018,7 hPa 1,2 l/m 5,7 km/h W 0,17 h 0,9 UV-I 122 W/m 15,3 km/h
13.03.2010 2,1 C 94 % 1021,7 hPa 1,6 l/m 10,7 km/h NW 0,00 h 0,7 UV-I 74 W/m 24,5 km/h
14.03.2010 2,1 C 94 % 1019,0 hPa 4,6 l/m 14,0 km/h NW 0,00 h 0,6 UV-I 44 W/m 30,5 km/h
15.03.2010 2,3 C 96 % 1018,8 hPa 10,8 l/m 11,2 km/h NW 1,67 h 1,0 UV-I 128 W/m 25,0 km/h
16.03.2010 2,7 C 90 % 1025,4 hPa 1,2 l/m 3,0 km/h N-NW 2,83 h 1,3 UV-I 210 W/m 6,5 km/h
17.03.2010 6,5 C 76 % 1023,9 hPa 0,0 l/m 5,7 km/h S-SW 6,58 h 1,3 UV-I 256 W/m 12,1 km/h
18.03.2010 9,1 C 68 % 1020,2 hPa 0,0 l/m 6,8 km/h S 8,75 h 1,6 UV-I 317 W/m 11,3 km/h
19.03.2010 10,9 C 76 % 1015,3 hPa 0,0 l/m 4,8 km/h S 0,00 h 0,8 UV-I 82 W/m 10,1 km/h
20.03.2010 11,6 C 90 % 1008,4 hPa 7,8 l/m 9,2 km/h S 0,08 h 0,7 UV-I 76 W/m 16,5 km/h
21.03.2010 7,4 C 96 % 1015,2 hPa 9,4 l/m 3,4 km/h S 0,00 h 0,6 UV-I 51 W/m 7,3 km/h
22.03.2010 4,8 C 91 % 1021,1 hPa 0,2 l/m 2,9 km/h S 4,92 h 1,5 UV-I 222 W/m 6,0 km/h
23.03.2010 6,2 C 84 % 1019,3 hPa 0,0 l/m 3,3 km/h S 3,67 h 1,5 UV-I 191 W/m 9,7 km/h
24.03.2010 11,0 C 70 % 1012,3 hPa 0,0 l/m 9,5 km/h S-SO 7,25 h 1,6 UV-I 283 W/m 14,1 km/h
25.03.2010 13,4 C 68 % 1006,9 hPa 0,0 l/m 6,2 km/h S-SO 5,83 h 1,6 UV-I 276 W/m 11,3 km/h
26.03.2010 8,0 C 89 % 1005,3 hPa 8,2 l/m 2,7 km/h S 2,67 h 1,4 UV-I 200 W/m 8,0 km/h
27.03.2010 8,0 C 82 % 1005,4 hPa 1,8 l/m 5,2 km/h S-SW 1,17 h 1,0 UV-I 141 W/m 15,3 km/h
28.03.2010 7,3 C 85 % 1007,6 hPa 10,2 l/m 6,3 km/h S-SW 3,17 h 1,3 UV-I 211 W/m 19,7 km/h
29.03.2010 6,8 C 92 % 1004,5 hPa 8,6 l/m 3,1 km/h S-SO 1,25 h 1,1 UV-I 151 W/m 6,4 km/h
30.03.2010 10,7 C 83 % 995,0 hPa 2,2 l/m 7,3 km/h S-SO 2,92 h 1,6 UV-I 226 W/m 14,5 km/h
31.03.2010 5,6 C 76 % 1000,0 hPa 0,0 l/m 11,5 km/h S 6,75 h 1,6 UV-I 325 W/m 21,7 km/h
Min-Datum 07.03.10 09.03.10 30.03.10 19 Tage 03.03.10 - - - - 03.03.10
Min-Zeit 07:40 15:25 16:10 - 17:40 - - - - 17:40
Minimum -12,2 C 43 % 992,6 hPa - 0,0 km/h - - - - 0,0 km/h
Max-Datum 25.03.10 22.03.10 07.03.10 15.03.10 31.03.10 - 10.03.10 31.03.10 28.03.10 01.03.10
Max-Zeit 16:10 08:15 11:10 19:25 19:50 - 16:50 13:00 14:25 01:20
Maximum 19,3 C 99 % 1035,3 hPa 10,8 l/m 31,6 km/h
S
- 8,67 h 3,2 UV-I 840 W/m 57,9 km/h
W
Durchschnitt 3,7 C 83 % 1016,6 hPa #82,0 l/m 6,1 km/h S #109:45 h 1,2 UV-I 195 W/m 14,0 km/h

Durchschnitt Minimum Temp.0,1 C
Durchschnitt Maximum Temp.8,2 C